Regional Weather Roundup
Issued by NWS Midland/Odessa, TX

Home | Current Version | Previous Version | Text Only | Print | Product List | Glossary On
Versions: 1 2 3 4 5 6 7 8 9 10 11 12 13 14 15 16 17 18 19 20 21 22 23 24 25 26 27 28 29 30 31 32 33 34 35 36 37 38 39 40 41 42 43 44 45 46 47 48 49 50
000
ASUS44 KMAF 291810
RWRMAF
MIDLAND AREA WEATHER ROUNDUP
NATIONAL WEATHER SERVICE MIDLAND TX
100 PM CDT FRI JUL 29 2016

...IN SOUTHWEST TEXAS AND SOUTHEAST NEW MEXICO...

CITY           SKY/WX    TMP DP  RH WIND       PRES   REMARKS
ALPINE         PTSUNNY   78  60  54 W7        30.22F
ANDREWS        FAIR      88  61  40 SE13G22   30.12F
ARTESIA        SUNNY     90  59  35 E10       30.13S
BIG SPRING     SUNNY     87  65  48 SE10G16   30.12F
CARLSBAD       SUNNY     90  58  33 SE8G20    30.09F
DRYDEN           N/A     89  69  51 E13G20    30.04F
FORT STOCKTON  MOSUNNY   88  63  43 SE8       30.09F
GUAD PASS      SUNNY     82  53  36 E26G37    30.23F
HOBBS          MOSUNNY   90  55  31 E13       30.15S
MARFA          PTSUNNY   83  58  42 SE8       30.20F
MIDLAND AIRPK  SUNNY     88  65  46 S12       30.12F
MIDLAND INTL   SUNNY     88  64  44 SE9G17    30.11F
ODESSA         SUNNY     88  65  46 SE14      30.13F
PECOS          SUNNY     91  62  38 E15G21    30.06F
PRESIDIO       NOT AVBL
SEMINOLE       MOSUNNY   89  57  33 SE13      30.14S
SNYDER           N/A     87  66  48 SE6       30.10F
WINK           SUNNY     89  64  43 E12G21    30.07F
$$
...OTHER STATIONS IN TEXAS...

CITY           SKY/WX    TMP DP  RH WIND       PRES   REMARKS
ABILENE        SUNNY     92  65  40 VRB3      30.07F
AMARILLO       MOSUNNY   74  62  66 SE25G35   30.16F
AUSTIN         PTSUNNY   90  72  55 VRB7      30.05F
BROWNSVILLE    PTSUNNY   95  73  48 SW6G16    29.98F THUNDER HX 104
CORPUS CHRISTI PTSUNNY   93  75  55 SE8       29.99F THUNDER HX 104
DALLAS FTW     CLOUDY    91  69  48 W8        30.02F
DEL RIO        CLOUDY    83  73  72 SE8       30.03F
EL PASO        MOSUNNY   92  55  28 NE8       30.09F
HOUSTON INT    PTSUNNY   90  73  57 CALM      30.03F
LUBBOCK        MOSUNNY   89  60  37 SE14      30.12S
SAN ANGELO     SUNNY     92  66  42 S9        30.08F
SAN ANTONIO    CLOUDY    87  71  58 VRB6      30.06F
WACO           CLOUDY    92  70  48 SE9       30.04F
WICHITA FALLS  NOT AVBL
$$
...OTHER LOCATIONS IN NEW MEXICO...

CITY           SKY/WX    TMP DP  RH WIND       PRES   REMARKS
ALAMAGORDO     SUNNY     90  54  29 NE3       30.13S
ALBUQUERQUE    MOSUNNY   89  51  27 S16G25    30.18S
CANNON AFB     PTSUNNY   88  58  36 SE8       30.17R
CLOVIS         MOSUNNY   90  59  35 SE13G20   30.18R
HOLLOMAN AFB   MOSUNNY   91  55  29 NW6       30.10F
ROSWELL        SUNNY     92  55  28 SE8       30.11F
RUIDOSO          N/A     81  45  28 SE9G18    30.38S
SANTA FE       NOT AVBL
TRUTH OR CONSE MOSUNNY   89  53  29 S7        30.14F
TUCUMCARI      CLOUDY    94  54  25 SE18G24   30.10F
$$




USA.gov is the U.S. government's official web portal to all federal, state and local government web resources and services.